Weather History for KAVK - January, 2014

Change the Weather History Date:

Tuesday, January 28, 2014

  Actual Average Record
Temperature  
Mean Temperature 18 °F -  
Max Temperature 32 °F 45 °F 80 °F (2008)
Min Temperature 5 °F 23 °F -3 °F (1948)
Degree Days  
Heating Degree Days 46    
Moisture  
Dew Point 12 °F    
Average Humidity 79    
Maximum Humidity 93    
Minimum Humidity 55    
Precipitation  
Precipitation 0.02 in - - ()
Sea Level Pressure  
Sea Level Pressure 30.41 in    
Wind  
Wind Speed 6 mph (West)    
Max Wind Speed 15 mph    
Max Gust Speed 21 mph    
Visibility 9 miles    
Events Snow    
Averages and records for this station are not official NWS values.
T = Trace of Precipitation, MM = Missing Value Source: NWS Daily Summary

Daily Weather History Graph

Daily Weather History Graph

Search for Another Location

Airport or City:

Trip Planner

Search our weather history database for the weather conditions in past years. The results will help you decide how hot, cold, wet, or windy it might be!

Date:

Astronomy

Jan. 28, 2014 Rise Set
Actual Time 7:39 AM CST 5:55 PM CST
Civil Twilight 7:12 AM CST 6:23 PM CST
Nautical Twilight 6:41 AM CST 6:54 PM CST
Astronomical Twilight 6:10 AM CST 7:25 PM CST
Moon 5:21 AM CST (1/28) 3:48 PM CST (1/28)
Length of Visible Light 11h 11m
Length of Day
10h 16m
Waning Crescent, 7% of the Moon is Illuminated
Jan 28
Waning Crescent
Jan 30
New
Feb 6
First Quarter
Feb 14
Full
Feb 22
Last Quarter

Hourly Weather History & Observations

Time (CST) Temp. Windchill Dew Point Humidity Pressure Visibility Wind Dir Wind Speed Gust Speed Precip Events Conditions
12:05 AM 15.8 °F 6.1 °F 12.2 °F 86% 30.45 in 1.8 mi NE 6.9 mph - N/A Snow Light Snow
12:25 AM 14.0 °F 5.1 °F 10.4 °F 86% 30.46 in 2.0 mi NE 5.8 mph - 0.02 in Snow Light Snow
12:45 AM 14.0 °F 6.5 °F 10.4 °F 86% 30.47 in 1.2 mi ENE 4.6 mph - 0.09 in Snow Light Snow
1:05 AM 14.0 °F 8.2 °F 10.4 °F 86% 30.47 in 1.8 mi NE 3.5 mph - N/A Snow Light Snow
1:25 AM 14.0 °F 8.2 °F 10.4 °F 86% 30.46 in 2.5 mi ENE 3.5 mph - 0.01 in Snow Light Snow
1:45 AM 14.0 °F 8.2 °F 10.4 °F 86% 30.45 in 5.0 mi ESE 3.5 mph - 0.02 in Snow Light Snow
2:05 AM 14.0 °F 6.5 °F 10.4 °F 86% 30.45 in 10.0 mi ESE 4.6 mph - N/A   Clear
2:25 AM 14.0 °F 8.2 °F 10.4 °F 86% 30.44 in 10.0 mi SE 3.5 mph - N/A   Clear
2:45 AM 14.0 °F 8.2 °F 10.4 °F 86% 30.44 in 10.0 mi SSE 3.5 mph - N/A   Clear
3:05 AM 14.0 °F - 10.4 °F 86% 30.45 in 10.0 mi Calm Calm - N/A   Clear
3:25 AM 14.0 °F 8.2 °F 10.4 °F 86% 30.45 in 10.0 mi SSW 3.5 mph - N/A   Clear
3:45 AM 14.0 °F 8.2 °F 10.4 °F 86% 30.45 in 10.0 mi SSW 3.5 mph - N/A   Clear
4:05 AM 14.0 °F 6.5 °F 10.4 °F 86% 30.44 in 10.0 mi SSW 4.6 mph - N/A   Clear
4:25 AM 12.2 °F 2.9 °F 8.6 °F 85% 30.44 in 10.0 mi SW 5.8 mph - N/A   Clear
4:45 AM 12.2 °F 6.1 °F 8.6 °F 85% 30.44 in 10.0 mi WSW 3.5 mph - N/A   Scattered Clouds
5:05 AM 10.4 °F 4.0 °F 8.6 °F 92% 30.45 in 10.0 mi WNW 3.5 mph - N/A   Mostly Cloudy
5:25 AM 10.4 °F 2.2 °F 8.6 °F 92% 30.45 in 10.0 mi West 4.6 mph - N/A   Mostly Cloudy
5:45 AM 10.4 °F 2.2 °F 6.8 °F 85% 30.46 in 10.0 mi West 4.6 mph - N/A   Scattered Clouds
6:05 AM 10.4 °F 0.8 °F 6.8 °F 85% 30.46 in 10.0 mi WNW 5.8 mph - N/A   Partly Cloudy
6:30 AM 8.6 °F -2.6 °F 6.8 °F 92% 30.46 in 10.0 mi West 6.9 mph - N/A   Scattered Clouds
6:45 AM 8.6 °F -2.6 °F 5.0 °F 85% 30.46 in 10.0 mi West 6.9 mph - N/A   Mostly Cloudy
7:05 AM 8.6 °F -1.3 °F 6.8 °F 92% 30.47 in 10.0 mi West 5.8 mph - N/A   Scattered Clouds
7:25 AM 6.8 °F -3.5 °F 5.0 °F 92% 30.48 in 10.0 mi West 5.8 mph - N/A   Clear
7:45 AM 6.8 °F -3.5 °F 3.2 °F 85% 30.49 in 10.0 mi WNW 5.8 mph - N/A   Clear
8:05 AM 6.8 °F -4.8 °F 1.4 °F 79% 30.49 in 10.0 mi WNW 6.9 mph - N/A   Clear
8:30 AM 5.0 °F -5.6 °F 1.4 °F 85% 30.49 in 10.0 mi WNW 5.8 mph - N/A   Clear
8:45 AM 5.0 °F -4.1 °F 1.4 °F 85% 30.49 in 10.0 mi West 4.6 mph - N/A   Clear
9:05 AM 6.8 °F -3.5 °F 5.0 °F 92% 30.50 in 10.0 mi WNW 5.8 mph - N/A   Clear
9:25 AM 10.4 °F 2.2 °F 6.8 °F 85% 30.51 in 10.0 mi WNW 4.6 mph - N/A   Clear
9:45 AM 12.2 °F 6.1 °F 8.6 °F 85% 30.51 in 10.0 mi WNW 3.5 mph - N/A   Clear
10:05 AM 15.8 °F 10.2 °F 10.4 °F 79% 30.51 in 10.0 mi WNW 3.5 mph - N/A   Clear
10:25 AM 17.6 °F 10.7 °F 14.0 °F 86% 30.51 in 10.0 mi West 4.6 mph - N/A   Clear
10:45 AM 19.4 °F 8.6 °F 12.2 °F 74% 30.50 in 10.0 mi West 9.2 mph - N/A   Mostly Cloudy
11:05 AM 19.4 °F 7.9 °F 12.2 °F 74% 30.50 in 10.0 mi WSW 10.4 mph - N/A   Overcast
11:25 AM 19.4 °F 7.9 °F 14.0 °F 80% 30.49 in 10.0 mi West 10.4 mph - N/A   Mostly Cloudy
11:45 AM 21.2 °F 8.9 °F 14.0 °F 74% 30.48 in 10.0 mi WSW 12.7 mph - N/A   Scattered Clouds
12:05 PM 23.0 °F 10.6 °F 14.0 °F 68% 30.46 in 10.0 mi West 13.8 mph - N/A   Partly Cloudy
12:25 PM 24.8 °F 12.4 °F 15.8 °F 69% 30.45 in 10.0 mi WSW 15.0 mph - N/A   Clear
12:45 PM 24.8 °F 12.4 °F 15.8 °F 69% 30.44 in 10.0 mi West 15.0 mph 20.7 mph N/A   Clear
1:05 PM 24.8 °F 13.4 °F 15.8 °F 69% 30.42 in 10.0 mi West 12.7 mph 17.3 mph N/A   Partly Cloudy
1:30 PM 26.6 °F 14.7 °F 17.6 °F 69% 30.40 in 10.0 mi West 15.0 mph 19.6 mph N/A   Scattered Clouds
1:45 PM 26.6 °F 15.2 °F 17.6 °F 69% 30.39 in 10.0 mi WNW 13.8 mph - N/A   Partly Cloudy
2:05 PM 28.4 °F 19.1 °F 19.4 °F 69% 30.38 in 10.0 mi West 10.4 mph 17.3 mph N/A   Clear
2:25 PM 28.4 °F 18.0 °F 19.4 °F 69% 30.37 in 10.0 mi West 12.7 mph 17.3 mph N/A   Partly Cloudy
2:45 PM 30.2 °F 21.9 °F 19.4 °F 64% 30.36 in 10.0 mi West 9.2 mph - N/A   Mostly Cloudy
3:05 PM 30.2 °F 20.2 °F 17.6 °F 60% 30.35 in 10.0 mi NW 12.7 mph 16.1 mph N/A   Overcast
3:25 PM 30.2 °F 19.8 °F 17.6 °F 60% 30.35 in 10.0 mi NW 13.8 mph - N/A   Mostly Cloudy
3:45 PM 30.2 °F 20.8 °F 17.6 °F 60% 30.35 in 10.0 mi NW 11.5 mph - N/A   Mostly Cloudy
4:10 PM 32.0 °F 22.5 °F 17.6 °F 55% 30.33 in 10.0 mi WNW 12.7 mph 19.6 mph N/A   Scattered Clouds
4:25 PM 32.0 °F 23.0 °F 17.6 °F 55% 30.33 in 10.0 mi West 11.5 mph 16.1 mph N/A   Clear
4:45 PM 30.2 °F 20.2 °F 17.6 °F 60% 30.33 in 10.0 mi West 12.7 mph - N/A   Partly Cloudy
5:05 PM 30.2 °F 20.2 °F 17.6 °F 60% 30.33 in 10.0 mi West 12.7 mph - N/A   Mostly Cloudy
5:25 PM 28.4 °F 17.5 °F 17.6 °F 64% 30.33 in 10.0 mi WSW 13.8 mph - N/A   Partly Cloudy
5:45 PM 28.4 °F 19.7 °F 17.6 °F 64% 30.33 in 10.0 mi WSW 9.2 mph - N/A   Clear
6:05 PM 26.6 °F 17.5 °F 17.6 °F 69% 30.33 in 10.0 mi WSW 9.2 mph - N/A   Clear
6:25 PM 24.8 °F 16.9 °F 17.6 °F 74% 30.33 in 10.0 mi West 6.9 mph - N/A   Clear
6:45 PM 23.0 °F 14.7 °F 17.6 °F 80% 30.33 in 10.0 mi West 6.9 mph - N/A   Clear
7:05 PM 23.0 °F 15.8 °F 15.8 °F 74% 30.34 in 10.0 mi West 5.8 mph - N/A   Clear
7:25 PM 23.0 °F 17.0 °F 15.8 °F 74% 30.34 in 10.0 mi West 4.6 mph - N/A   Clear
7:45 PM 23.0 °F 18.4 °F 15.8 °F 74% 30.34 in 10.0 mi West 3.5 mph - N/A   Clear
8:05 PM 21.2 °F 14.9 °F 15.8 °F 80% 30.34 in 10.0 mi NW 4.6 mph - N/A   Clear
8:25 PM 19.4 °F 14.3 °F 15.8 °F 86% 30.34 in 10.0 mi WNW 3.5 mph - N/A   Clear
8:50 PM 21.2 °F 16.4 °F 15.8 °F 80% 30.34 in 10.0 mi WNW 3.5 mph - N/A   Clear
9:10 PM 19.4 °F - 14.0 °F 80% 30.34 in 10.0 mi Calm Calm - N/A   Partly Cloudy
9:25 PM 17.6 °F - 14.0 °F 86% 30.34 in 10.0 mi Calm Calm - N/A   Clear
9:45 PM 15.8 °F 10.2 °F 14.0 °F 93% 30.34 in 10.0 mi West 3.5 mph - N/A   Clear
10:05 PM 17.6 °F 12.3 °F 14.0 °F 86% 30.34 in 10.0 mi West 3.5 mph - N/A   Clear
10:30 PM 15.8 °F 8.6 °F 14.0 °F 93% 30.33 in 10.0 mi WSW 4.6 mph - N/A   Clear
10:50 PM 15.8 °F 10.2 °F 12.2 °F 86% 30.33 in 10.0 mi SW 3.5 mph - N/A   Clear
11:05 PM 15.8 °F 6.1 °F 10.4 °F 79% 30.33 in 10.0 mi SW 6.9 mph - N/A   Clear
11:25 PM 15.8 °F 5.1 °F 10.4 °F 79% 30.33 in 10.0 mi WSW 8.1 mph - N/A   Clear
11:45 PM 14.0 °F 1.2 °F 10.4 °F 86% 30.32 in 10.0 mi WSW 10.4 mph - N/A   Clear